Regional Weather Roundup
Issued by NWS

Home | Current Version | Previous Version | Graphics & Text | Print | Product List | Glossary On
Versions: 1 2 3 4 5 6 7 8 9 10 11 12 13 14 15 16 17 18 19 20 21 22 23 24 25 26 27 28 29 30 31 32 33 34 35 36 37 38 39 40 41 42 43 44 45 46 47 48 49 50
465
ASUS45 KPSR 181410
RWRAZ

ARIZONA HOURLY REGIONAL WEATHER ROUNDUP
NATIONAL WEATHER SERVICE PHOENIX AZ
700 AM MST SAT NOV 18 2017

NOTE: FAIR INDICATES FEW OR NO CLOUDS BELOW 12,000 FEET WITH NO
SIGNIFICANT WEATHER AND/OR OBSTRUCTIONS TO VISIBILITY.

AZZ001>003-036-181500-
NORTHWEST ARIZONA

CITY           SKY/WX    TMP DP  RH WIND       PRES   REMARKS
BULLHEAD CITY  CLEAR     55  18  22 N24G35    30.24R
KINGMAN        CLEAR     37  19  48 E9        30.28R WCI  30
$$

AZZ004>008-015-016-018-181500-
NORTH CENTRAL ARIZONA

CITY           SKY/WX    TMP DP  RH WIND       PRES   REMARKS
GRAND CANYON   PTCLDY    29  12  49 CALM      30.33R
WILLIAMS       CLEAR     25  18  74 SE10      30.28S WCI  15
PRESCOTT       CLEAR     31  27  85 CALM      30.27R
FLAGSTAFF      PTCLDY    27  14  58 NE12      30.32R WCI  17
PAYSON           N/A     41  23  48 N10       30.27R
PAGE           PTCLDY    35  14  42 W5        30.38R WCI  31
$$

AZZ009>014-017-181500-
NORTHEAST ARIZONA

CITY           SKY/WX    TMP DP  RH WIND       PRES   REMARKS
WINSLOW        CLEAR     35  18  49 NW8       30.36R WCI  29
SAINT JOHNS    CLEAR     29  23  78 CALM      30.32R
WINDOW ROCK    CLEAR     25  11  55 CALM      30.32R
SHOW LOW       CLEAR     27  21  80 N7        30.34R WCI  19
$$

AZZ540-542>544-546-548-181500-
GREATER PHOENIX AREA

CITY           SKY/WX    TMP DP  RH WIND       PRES   REMARKS
PHOENIX        PTCLDY    57  43  59 CALM      30.09R
BUCKEYE        CLEAR     55  37  50 E3        30.11R
GLENDALE       CLEAR     63  37  39 N14       30.12
LUKE AFB       CLEAR     62  37  39 N18       30.10R
DEER VALLEY    CLEAR     59  38  45 N8        30.11R
SCOTTSDALE     CLEAR     64  36  35 N6        30.11R
MESA-FALCON    CLEAR     61  37  41 NE10      30.11
MESA-GATEWAY   PTCLDY    52  34  50 SE5       30.10R
CHANDLER       CLEAR     52  41  66 CALM      30.10R
$$

AZZ539-553-181500-
SOUTHWEST MARICOPA COUNTY AND PINAL COUNTY

CITY           SKY/WX    TMP DP  RH WIND       PRES   REMARKS
CASA GRANDE    NOT AVBL
$$

AZZ503-504-507>509-181500-
SOUTHEAST ARIZONA

CITY           SKY/WX    TMP DP  RH WIND       PRES   REMARKS
TUCSON         CLEAR     52  33  48 SE8       30.14R
DAVIS-MONTHAN  CLEAR     52  35  52 S7        30.12R
RYAN FIELD     CLEAR     54  37  54 E5        30.13R
NOGALES        CLEAR     44  33  65 CALM      30.16R
SIERRA VISTA   CLEAR     48  35  61 CALM      30.21R
DOUGLAS        CLEAR     46  30  53 N3        30.19R
SAFFORD        CLEAR     53  34  48 W6        30.14R
$$

AZZ532-181500-
SOUTHWEST ARIZONA

CITY           SKY/WX    TMP DP  RH WIND       PRES   REMARKS
YUMA           CLEAR     65  22  19 NE14      30.09R
$$

CAZ041-043-047-048-061-525>527-560>570-181500-
SOUTHERN CALIFORNIA

CITY           SKY/WX    TMP DP  RH WIND       PRES   REMARKS
DOWNTOWN L.A.  CLEAR     57  52  83 CALM      30.12R
L.A. AIRPORT   PTCLDY    59  55  87 VRB5      30.12R
SAN DIEGO      MOCLDY    57  51  80 N3        30.13R
BURBANK        CLEAR     52  48  86 CALM      30.12R
ONTARIO        PTCLDY    54  52  93 N5        30.12R FOG
RIVERSIDE      CLEAR     53  50  89 E5        30.12S
PALM SPRINGS   CLEAR     67  22  18 NW5       30.15R
EL CENTRO NAS  CLEAR     57  44  62 CALM      30.13R
IMPERIAL       CLEAR     55  45  68 CALM      30.10R
BLYTHE         CLEAR     60  15  17 N14       30.17R
NEEDLES        CLEAR     57  22  25 N18       30.24R
$$

NVZ020-UTZ003-181500-
SOUTHERN NEVADA-UTAH

CITY           SKY/WX    TMP DP  RH WIND       PRES   REMARKS
LAS VEGAS      CLEAR     48  16  27 N10       30.33R
SALT LAKE CITY PTCLDY    31  21  66 SE8       30.44R WCI  23
$$

NMZ009-TXZ055-181500-
NEW MEXICO-WEST TEXAS

CITY           SKY/WX    TMP DP  RH WIND       PRES   REMARKS
ALBUQUERQUE    CLOUDY    37  13  37 N17       30.29R WCI  27
EL PASO        PTCLDY    60  30  32 N14       30.12R
$$


........................KEY........................
SKY/WX - SKY CONDITION/WEATHER
TMP    - TEMPERATURE IN FAHRENHEIT
DP     - DEW POINT IN FAHRENHEIT
RH     - RELATIVE HUMIDITY IN PERCENT
WIND   - DIRECTION AND SPEED IN MILES PER HOUR (MPH)
VRB    - VARIABLE WIND DIRECTION
PRES   - MEAN SEA LEVEL PRESSURE IN INCHES OF MERCURY
         F - FALLING PRESSURE   R - RISING PRESSURE
         S - STEADY PRESSURE
VSB    - VISIBILITY IN MILES
HX     - HEAT INDEX IN FAHRENHEIT
WCI    - WIND CHILL INDEX IN FAHRENHEIT
TC     - TEMPERATURE IN CELSIUS WHICH IS ALSO KNOWN AS
         TEMPERATURE IN CENTIGRADE
AFB    - AIR FORCE BASE
         LUKE AFB IS LUKE AIR FORCE BASE
         DAVIS-MONTHAN IS DAVIS-MONTHAN AIR FORCE BASE
NAS    - NAVAL AIR STATION
         EL CENTRO NAS IS EL CENTRO NAVAL AIR STATION
N/A    - NOT AVAILABLE





USA.gov is the U.S. government's official web portal to all federal, state and local government web resources and services.